Weather History for Goldsboro, NC

Change the Weather History Date:

Friday, February 7, 2014

  Actual Average Record
Temperature  
Mean Temperature 40 °F -  
Max Temperature 50 °F 54 °F 77 °F (1999)
Min Temperature 30 °F 34 °F 30 °F (2006)
Degree Days  
Heating Degree Days 25    
Moisture  
Dew Point 30 °F    
Average Humidity 73    
Maximum Humidity 97    
Minimum Humidity 42    
Precipitation  
Precipitation 0.00 in - - ()
Sea Level Pressure  
Sea Level Pressure 30.30 in    
Wind  
Wind Speed 3 mph (NE)    
Max Wind Speed 6 mph    
Max Gust Speed -    
Visibility 10 miles    
Events      
Averages and records for this station are not official NWS values.
T = Trace of Precipitation, MM = Missing Value Source: NWS Daily Summary

Daily Weather History Graph

Daily Weather History Graph

Search for Another Location

Airport:

Trip Planner

Search our weather history database for the weather conditions in past years. The results will help you decide how hot, cold, wet, or windy it might be!

Date:

Astronomy

Feb. 07, 2014 Rise Set
Actual Time 7:06 AM EST 5:46 PM EST
Civil Twilight 6:39 AM EST 6:12 PM EST
Nautical Twilight 6:09 AM EST 6:42 PM EST
Astronomical Twilight 5:40 AM EST 7:12 PM EST
Moon 11:58 AM EST (2/7) 1:18 AM EST (2/7)
Length of Visible Light 11h 32m
Length of Day
10h 39m
First Quarter, 59% of the Moon is Illuminated
Feb 7
First Quarter
Feb 14
Full
Feb 22
Last Quarter
Mar 1
New
Mar 8
First Quarter

Hourly Weather History & Observations

Time (EST) Temp. Windchill Dew Point Humidity Pressure Visibility Wind Dir Wind Speed Gust Speed Precip Events Conditions
12:52 AM 37.4 °F - 28.4 °F 70% 30.30 in 10.0 mi NNE 1.2 mph - N/A   Scattered Clouds
12:58 AM 36.9 °F - 28.2 °F 71% 30.31 in 10.0 mi ENE 2.3 mph - 0.00 in   Scattered Clouds
1:03 AM 37.4 °F 34.9 °F 30.2 °F 75% 30.29 in 10.0 mi NE 3.5 mph - N/A   Partly Cloudy
1:58 AM 36.3 °F 32.5 °F 29.8 °F 77% 30.28 in 10.0 mi NE 4.6 mph - 0.00 in   Overcast
2:58 AM 34.7 °F 30.6 °F 29.1 °F 80% 30.27 in 10.0 mi North 4.6 mph - N/A   Clear
3:58 AM 33.4 °F 29.1 °F 29.5 °F 85% 30.28 in 10.0 mi NNE 4.6 mph - N/A   Clear
4:58 AM 31.8 °F 28.5 °F 30.2 °F 94% 30.30 in 10.0 mi NNW 3.5 mph - N/A   Clear
5:58 AM 30.0 °F - 29.1 °F 96% 30.32 in 10.0 mi North 2.3 mph - N/A   Clear
6:58 AM 30.2 °F - 29.5 °F 97% 30.32 in 10.0 mi NE 2.3 mph - N/A   Clear
7:58 AM 31.3 °F - 30.6 °F 97% 30.35 in 10.0 mi ENE 2.3 mph - N/A   Clear
8:58 AM 36.3 °F 31.6 °F 32.2 °F 85% 30.35 in 7.0 mi East 5.8 mph - N/A   Clear
9:58 AM 39.7 °F 35.6 °F 31.5 °F 72% 30.33 in 10.0 mi NE 5.8 mph - N/A   Partly Cloudy
10:58 AM 43.9 °F 40.5 °F 27.7 °F 53% 30.35 in 10.0 mi NE 5.8 mph - N/A   Clear
11:58 AM 46.2 °F - 27.1 °F 47% 30.34 in 10.0 mi Variable 2.3 mph - N/A   Clear
12:58 PM 46.2 °F 43.3 °F 27.0 °F 47% 30.29 in 10.0 mi NE 5.8 mph - N/A   Clear
1:58 PM 48.2 °F - 27.5 °F 45% 30.28 in 10.0 mi Variable 2.3 mph - N/A   Clear
2:58 PM 48.6 °F - 27.5 °F 44% 30.27 in 10.0 mi ESE 4.6 mph - N/A   Clear
3:58 PM 49.8 °F - 28.4 °F 44% 30.27 in 10.0 mi ESE 2.3 mph - N/A   Clear
4:58 PM 50.0 °F - 27.5 °F 42% 30.27 in 10.0 mi ESE 2.3 mph - N/A   Clear
5:58 PM 44.6 °F 43.1 °F 30.4 °F 57% 30.27 in 10.0 mi East 3.5 mph - N/A   Partly Cloudy
6:58 PM 41.2 °F - 31.8 °F 69% 30.30 in 10.0 mi Calm Calm - N/A   Clear
7:58 PM 38.3 °F - 33.4 °F 83% 30.30 in 10.0 mi Calm Calm - N/A   Partly Cloudy
8:58 PM 37.0 °F - 33.1 °F 86% 30.30 in 10.0 mi East 2.3 mph - N/A   Clear
9:58 PM 35.1 °F - 33.8 °F 95% 30.28 in 10.0 mi Calm Calm - N/A   Clear
10:58 PM 35.2 °F - 33.1 °F 92% 30.30 in 10.0 mi Calm Calm - N/A   Clear
11:58 PM 33.6 °F - 32.7 °F 96% 30.30 in 10.0 mi Calm Calm - N/A   Mostly Cloudy